Location: Balmoral
(33.0667°S, 151.5833°E)
Time: 01:07:05
(UTC+00:00)

ASTRO E2 - Pass Details

Date: 18 September 2020
Orbit: 509 x 515 km, 31.4° (Epoch: 21 October)

Event Time Altitude Azimuth Distance (km) Brightness Sun altitude
Exits shadow 19:10:13 11° 280° (W) 1,675 4.6 -8.6°
Maximum altitude 19:13:32 29° 340° (NNW) 963 3.9 -7.9°
Drops below altitude 10° 19:17:02 10° 41° (NE) 1,734 5.9 -7.2°
Sets 19:19:27 0° 52° (NE) 2,615 7.1 -6.7°
